sat.trackr.live / text

‹ back to catalog

STARLINK-35526

NORAD 65931 · 2025-225X

PAYLOAD ACTIVE UNKNOWN

§ Identity

Operator
Country
US
Launch date
2025-10-08
Launch site
AFWTR
Launch vehicle
Mass (kg)
RCS (m²)

Purposes: comms

External: N2YO · Heavens-Above · Gunter

§ Orbital elements

Epoch: 2026-09-20T21:43:30.093888Z

Period
93.85 min
Inclination
53.1585°
Eccentricity
0.0001352
Mean motion
15.34400865 rev/d
Perigee alt
461.8 km
Apogee alt
463.6 km
Semi-major
6,840.8 km
B*
5.0558e-4
RAAN
337.7062°
Arg perigee
74.5329°
Mean anomaly
285.5823°
Rev number
5,431

§ Raw data

STARLINK-355261 65931U 25225X   26263.90520942  .00016744  00000+0  50558-3 0  99972 65931  53.1585 337.7062 0001352  74.5329 285.5823 15.34400865 54314

JSON: /api/v1/satellites/65931 · /tle

For live sub-satellite position, see the globe view (requires WebGL).

§ Visibility from observer

Set your observer location to see the next 7 days of passes ≥ 10°. The values pass through the URL so the page stays shareable.

No JS? Fill the form by hand. The geolocation button needs JavaScript.